Regional Weather Roundup
Issued by NWS

Home | Current Version | Previous Version | Text Only | Print | Product List | Glossary Off
Versions: 1 2 3 4 5 6 7 8 9 10 11 12 13 14 15 16 17 18 19 20 21 22 23 24 25 26 27 28 29 30 31 32 33 34 35 36 37 38 39 40 41 42 43 44 45 46 47 48 49 50

000
ASUS45 KCYS 301910
RWRWY

WYOMING REGIONAL WEATHER ROUNDUP
NATIONAL WEATHER SERVICE CHEYENNE WY
100 PM MDT TUE JUN 30 2015

NOTE:  "FAIR" INDICATES FEW OR NO CLOUDS BELOW 12,000 FEET
WITH NO SIGNIFICANT WEATHER AND/OR OBSTRUCTIONS TO VISIBILITY.

WYZ001-302000-
YELLOWSTONE NATIONAL PARK

CITY           SKY/WX    TMP DP  RH WIND       PRES   REMARKS
LK YELLOWSTONE   N/A     73  49  42 VRB5      30.35F
W YELLOWSTONE  NOT AVBL

$$
WYZ002>013-054>058-071-098>099-302000-
NORTHERN WYOMING

CITY           SKY/WX    TMP DP  RH WIND       PRES   REMARKS
JACKSON        FAIR      81  54  39 CALM      30.25F
CODY           PTSUNNY   81  54  39 N6        30.10S THUNDER
GREYBULL       FAIR      95  47  19 N14G24    29.99F HX  91
WORLAND        FAIR      91  52  26 VRB6      30.02F
SHERIDAN       FAIR      86  57  37 VRB5      30.01F
BUFFALO        FAIR      80  54  40 NW6       30.09F
GILLETTE       FAIR      79  57  46 NW14      30.04R
HULETT         MOCLDY    82  54  36 NW5G16    30.02R
NEWCASTLE      FAIR      86  50  28 NW6       30.00F

$$
WYZ014>020-022>026-101>103-302000-
CENTRAL WYOMING

CITY           SKY/WX    TMP DP  RH WIND       PRES   REMARKS
BIG PINEY      FAIR      86  42  21 NW15      30.29S
PINEDALE       FAIR      81  41  24 NW14G20   30.30R
DUBOIS         FAIR      77  41  27 N13G24    30.26S
LANDER         FAIR      86  46  24 CALM      30.11F
RIVERTON       FAIR      90  52  27 E13G20    30.11F
CASPER         FAIR      84  47  27 NW8       30.11S
DOUGLAS        FAIR      90  48  23 W18G30    30.06F

$$
WYZ021-027>030-104>119-302000-
SOUTHERN WYOMING

CITY           SKY/WX    TMP DP  RH WIND       PRES   REMARKS
EVANSTON       FAIR      86  47  25 SW9       30.30F
KEMMERER       FAIR      86  39  19 NW10G18   30.31F
FORT BRIDGER   CLEAR     90  43  19 N14G20    30.30F
ROCK SPRINGS   FAIR      86  43  22 VRB6G17   30.24F
DIXON          FAIR      91  40  17 W9        30.23F
RAWLINS        FAIR      86  41  20 SW15      30.23F
SARATOGA       FAIR      88  41  19 N8        30.25F
LARAMIE        FAIR      86  42  21 N9        30.25F
CHEYENNE       PTSUNNY   88  40  18 CALM      30.15F
TORRINGTON     FAIR      90  53  28 VRB3      29.99F
PINE BLUFFS    FAIR      86  43  22 S5        30.09F

$$



USA.gov is the U.S. government's official web portal to all federal, state and local government web resources and services.